Location: Unspecified
(51.0950°N, 12.9690°E)
Time: 11:35:25
(UTC+00:00)

ATLAS 3B R/B - Pass Details

Date: 22 May 2022
Orbit: 976 x 1218 km, 63.8° (Epoch: 20 June)

Event Time Altitude Azimuth Distance (km) Brightness Sun altitude
Rises 22:16:07 0° 316° (NW) 3,945 6.7 -17.6°
Reaches altitude 10° 22:18:46 10° 313° (NW) 3,017 5.9 -17.7°
Maximum altitude 22:25:53 62° 235° (SW) 1,304 3.0 -17.9°
Enters shadow 22:30:12 27° 164° (SSE) 2,130 3.7 -18.0°
